Year,Month,Day,Hour,Minute,Value (Times are PST for temperature in C)
2017,07,14,00,00,15.30
2017,07,14,00,01,15.30
2017,07,14,00,02,15.30
2017,07,14,00,03,15.30
2017,07,14,00,04,15.30
2017,07,14,00,05,15.30
2017,07,14,00,06,15.30
2017,07,14,00,07,15.30
2017,07,14,00,08,15.30
2017,07,14,00,09,15.20
2017,07,14,00,10,15.20
2017,07,14,00,11,15.20
2017,07,14,00,12,15.20
2017,07,14,00,13,15.20
2017,07,14,00,14,15.20
2017,07,14,00,15,15.20
2017,07,14,00,16,15.20
2017,07,14,00,17,15.20
2017,07,14,00,18,15.20
2017,07,14,00,19,15.20
2017,07,14,00,20,15.10
2017,07,14,00,21,15.10
2017,07,14,00,22,15.10
2017,07,14,00,23,15.10
2017,07,14,00,24,15.10
2017,07,14,00,25,15.10
2017,07,14,00,26,15.10
2017,07,14,00,27,15.10
2017,07,14,00,28,15.10
2017,07,14,00,29,15.10
2017,07,14,00,30,15.10
2017,07,14,00,31,15.10
2017,07,14,00,32,15.10
2017,07,14,00,33,15.10
2017,07,14,00,34,15.00
2017,07,14,00,35,15.00
2017,07,14,00,36,15.00
2017,07,14,00,37,15.00
2017,07,14,00,38,15.00
2017,07,14,00,39,15.00
2017,07,14,00,40,15.00
2017,07,14,00,41,15.00
2017,07,14,00,42,14.90
2017,07,14,00,43,14.90
2017,07,14,00,44,14.90
2017,07,14,00,45,14.90
2017,07,14,00,46,14.90
2017,07,14,00,47,14.90
2017,07,14,00,48,14.90
2017,07,14,00,49,14.90
2017,07,14,00,50,14.90
2017,07,14,00,51,14.90
2017,07,14,00,52,14.80
2017,07,14,00,53,14.80
2017,07,14,00,54,14.80
2017,07,14,00,55,14.80
2017,07,14,00,56,14.80
2017,07,14,00,57,14.80
2017,07,14,00,58,14.80
2017,07,14,00,59,14.80
2017,07,14,01,00,14.80
2017,07,14,01,01,14.80
2017,07,14,01,02,14.80
2017,07,14,01,03,14.70
2017,07,14,01,04,14.70
2017,07,14,01,05,14.70
2017,07,14,01,06,14.70
2017,07,14,01,07,14.70
2017,07,14,01,08,14.70
2017,07,14,01,09,14.70
2017,07,14,01,10,14.70
2017,07,14,01,11,14.60
2017,07,14,01,12,14.60
2017,07,14,01,13,14.60
2017,07,14,01,14,14.60
2017,07,14,01,15,14.60
2017,07,14,01,16,14.60
2017,07,14,01,17,14.60
2017,07,14,01,18,14.60
2017,07,14,01,19,14.60
2017,07,14,01,20,14.60
2017,07,14,01,21,14.60
2017,07,14,01,22,14.60
2017,07,14,01,23,14.50
2017,07,14,01,24,14.60
2017,07,14,01,25,14.50
2017,07,14,01,26,14.50
2017,07,14,01,27,14.50
2017,07,14,01,28,14.50
2017,07,14,01,29,14.50
2017,07,14,01,30,14.50
2017,07,14,01,31,14.40
2017,07,14,01,32,14.40
2017,07,14,01,33,14.40
2017,07,14,01,34,14.40
2017,07,14,01,35,14.40
2017,07,14,01,36,14.40
2017,07,14,01,37,14.40
2017,07,14,01,38,14.40
2017,07,14,01,39,14.40
2017,07,14,01,40,14.30
2017,07,14,01,41,14.30
2017,07,14,01,42,14.30
2017,07,14,01,43,14.30
2017,07,14,01,44,14.30
2017,07,14,01,45,14.30
2017,07,14,01,46,14.30
2017,07,14,01,47,14.30
2017,07,14,01,48,14.30
2017,07,14,01,49,14.20
2017,07,14,01,50,14.20
2017,07,14,01,51,14.20
2017,07,14,01,52,14.20
2017,07,14,01,53,14.20
2017,07,14,01,54,14.20
2017,07,14,01,55,14.20
2017,07,14,01,56,14.20
2017,07,14,01,57,14.20
2017,07,14,01,58,14.20
2017,07,14,01,59,14.20
2017,07,14,02,00,14.20
2017,07,14,02,01,14.20
2017,07,14,02,02,14.20
2017,07,14,02,03,14.20
2017,07,14,02,04,14.20
2017,07,14,02,05,14.20
2017,07,14,02,06,14.20
2017,07,14,02,07,14.20
2017,07,14,02,08,14.20
2017,07,14,02,09,14.20
2017,07,14,02,10,14.20
2017,07,14,02,11,14.20
2017,07,14,02,12,14.20
2017,07,14,02,13,14.20
2017,07,14,02,14,14.20
2017,07,14,02,15,14.20
2017,07,14,02,16,14.10
2017,07,14,02,17,14.10
2017,07,14,02,18,14.10
2017,07,14,02,19,14.10
2017,07,14,02,20,14.10
2017,07,14,02,21,14.10
2017,07,14,02,22,14.10
2017,07,14,02,23,14.10
2017,07,14,02,24,14.10
2017,07,14,02,25,14.10
2017,07,14,02,26,14.10
2017,07,14,02,27,14.10
2017,07,14,02,28,14.10
2017,07,14,02,29,14.10
2017,07,14,02,30,14.10
2017,07,14,02,31,14.10
2017,07,14,02,32,14.00
2017,07,14,02,33,14.00
2017,07,14,02,34,14.00
2017,07,14,02,35,14.00
2017,07,14,02,36,14.00
2017,07,14,02,37,14.00
2017,07,14,02,38,13.90
2017,07,14,02,39,13.90
2017,07,14,02,40,13.90
2017,07,14,02,41,13.90
2017,07,14,02,42,13.90
2017,07,14,02,43,13.90
2017,07,14,02,44,13.90
2017,07,14,02,45,13.90
2017,07,14,02,46,13.90
2017,07,14,02,47,13.80
2017,07,14,02,48,13.80
2017,07,14,02,49,13.80
2017,07,14,02,50,13.80
2017,07,14,02,51,13.80
2017,07,14,02,52,13.80
2017,07,14,02,53,13.70
2017,07,14,02,54,13.70
2017,07,14,02,55,13.70
2017,07,14,02,56,13.70
2017,07,14,02,57,13.70
2017,07,14,02,58,13.70
2017,07,14,02,59,13.70
2017,07,14,03,00,13.70
2017,07,14,03,01,13.70
2017,07,14,03,02,13.70
2017,07,14,03,03,13.70
2017,07,14,03,04,13.70
2017,07,14,03,05,13.60
2017,07,14,03,06,13.60
2017,07,14,03,07,13.60
2017,07,14,03,08,13.60
2017,07,14,03,09,13.60
2017,07,14,03,10,13.60
2017,07,14,03,11,13.60
2017,07,14,03,12,13.50
2017,07,14,03,13,13.50
2017,07,14,03,14,13.50
2017,07,14,03,15,13.50
2017,07,14,03,16,13.40
2017,07,14,03,17,13.40
2017,07,14,03,18,13.40
2017,07,14,03,19,13.40
2017,07,14,03,20,13.30
2017,07,14,03,21,13.30
2017,07,14,03,22,13.30
2017,07,14,03,23,13.30
2017,07,14,03,24,13.30
2017,07,14,03,25,13.30
2017,07,14,03,26,13.20
2017,07,14,03,27,13.20
2017,07,14,03,28,13.20
2017,07,14,03,29,13.20
2017,07,14,03,30,13.20
2017,07,14,03,31,13.10
2017,07,14,03,32,13.10
2017,07,14,03,33,13.10
2017,07,14,03,34,13.00
2017,07,14,03,35,13.00
2017,07,14,03,36,13.00
2017,07,14,03,37,12.90
2017,07,14,03,38,12.90
2017,07,14,03,39,12.90
2017,07,14,03,40,12.90
2017,07,14,03,41,12.80
2017,07,14,03,42,12.80
2017,07,14,03,43,12.80
2017,07,14,03,44,12.80
2017,07,14,03,45,12.80
2017,07,14,03,46,12.80
2017,07,14,03,47,12.70
2017,07,14,03,48,12.70
2017,07,14,03,49,12.70
2017,07,14,03,50,12.70
2017,07,14,03,51,12.70
2017,07,14,03,52,12.70
2017,07,14,03,53,12.70
2017,07,14,03,54,12.60
2017,07,14,03,55,12.60
2017,07,14,03,56,12.60
2017,07,14,03,57,12.60
2017,07,14,03,58,12.60
2017,07,14,03,59,12.60
2017,07,14,04,00,12.60
2017,07,14,04,01,12.60
2017,07,14,04,02,12.60
2017,07,14,04,03,12.50
2017,07,14,04,04,12.50
2017,07,14,04,05,12.50
2017,07,14,04,06,12.50
2017,07,14,04,07,12.50
2017,07,14,04,08,12.50
2017,07,14,04,09,12.40
2017,07,14,04,10,12.40
2017,07,14,04,11,12.40
2017,07,14,04,12,12.40
2017,07,14,04,13,12.40
2017,07,14,04,14,12.40
2017,07,14,04,15,12.40
2017,07,14,04,16,12.30
2017,07,14,04,17,12.30
2017,07,14,04,18,12.30
2017,07,14,04,19,12.30
2017,07,14,04,20,12.30
2017,07,14,04,21,12.30
2017,07,14,04,22,12.30
2017,07,14,04,23,12.20
2017,07,14,04,24,12.20
2017,07,14,04,25,12.20
2017,07,14,04,26,12.20
2017,07,14,04,27,12.20
2017,07,14,04,28,12.20
2017,07,14,04,29,12.10
2017,07,14,04,30,12.10
2017,07,14,04,31,12.10
2017,07,14,04,32,12.10
2017,07,14,04,33,12.10
2017,07,14,04,34,12.10
2017,07,14,04,35,12.00
2017,07,14,04,36,12.00
2017,07,14,04,37,12.00
2017,07,14,04,38,12.00
2017,07,14,04,39,12.00
2017,07,14,04,40,11.90
2017,07,14,04,41,11.90
2017,07,14,04,42,11.90
2017,07,14,04,43,11.90
2017,07,14,04,44,11.90
2017,07,14,04,45,11.90
2017,07,14,04,46,11.90
2017,07,14,04,47,11.90
2017,07,14,04,48,11.90
2017,07,14,04,49,11.80
2017,07,14,04,50,11.80
2017,07,14,04,51,11.80
2017,07,14,04,52,11.80
2017,07,14,04,53,11.80
2017,07,14,04,54,11.80
2017,07,14,04,55,11.80
2017,07,14,04,56,11.80
2017,07,14,04,57,11.80
2017,07,14,04,58,11.80
2017,07,14,04,59,11.80
2017,07,14,05,00,11.80
2017,07,14,05,01,11.80
2017,07,14,05,02,11.80
2017,07,14,05,03,11.80
2017,07,14,05,04,11.80
2017,07,14,05,05,11.70
2017,07,14,05,06,11.70
2017,07,14,05,07,11.70
2017,07,14,05,08,11.70
2017,07,14,05,09,11.70
2017,07,14,05,10,11.70
2017,07,14,05,11,11.70
2017,07,14,05,12,11.70
2017,07,14,05,13,11.70
2017,07,14,05,14,11.70
2017,07,14,05,15,11.70
2017,07,14,05,16,11.70
2017,07,14,05,17,11.70
2017,07,14,05,18,11.70
2017,07,14,05,19,11.70
2017,07,14,05,20,11.70
2017,07,14,05,21,11.70
2017,07,14,05,22,11.70
2017,07,14,05,23,11.70
2017,07,14,05,24,11.70
2017,07,14,05,25,11.70
2017,07,14,05,26,11.60
2017,07,14,05,27,11.60
2017,07,14,05,28,11.60
2017,07,14,05,29,11.60
2017,07,14,05,30,11.60
2017,07,14,05,31,11.60
2017,07,14,05,32,11.60
2017,07,14,05,33,11.60
2017,07,14,05,34,11.60
2017,07,14,05,35,11.60
2017,07,14,05,36,11.60
2017,07,14,05,37,11.60
2017,07,14,05,38,11.60
2017,07,14,05,39,11.60
2017,07,14,05,40,11.60
2017,07,14,05,41,11.60
2017,07,14,05,42,11.60
2017,07,14,05,43,11.60
2017,07,14,05,44,11.60
2017,07,14,05,45,11.60
2017,07,14,05,46,11.60
2017,07,14,05,47,11.60
2017,07,14,05,48,11.50
2017,07,14,05,49,11.50
2017,07,14,05,50,11.60
2017,07,14,05,51,11.50
2017,07,14,05,52,11.50
2017,07,14,05,53,11.50
2017,07,14,05,54,11.50
2017,07,14,05,55,11.50
2017,07,14,05,56,11.50
2017,07,14,05,57,11.50
2017,07,14,05,58,11.50
2017,07,14,05,59,11.50
2017,07,14,06,00,11.50
2017,07,14,06,01,11.50
2017,07,14,06,02,11.50
2017,07,14,06,03,11.50
2017,07,14,06,04,11.50
2017,07,14,06,05,11.50
2017,07,14,06,06,11.50
2017,07,14,06,07,11.50
2017,07,14,06,08,11.50
2017,07,14,06,09,11.50
2017,07,14,06,10,11.50
2017,07,14,06,11,11.50
2017,07,14,06,12,11.50
2017,07,14,06,13,11.50
2017,07,14,06,14,11.50
2017,07,14,06,15,11.50
2017,07,14,06,16,11.60
2017,07,14,06,17,11.60
2017,07,14,06,18,11.60
2017,07,14,06,19,11.60
2017,07,14,06,20,11.60
2017,07,14,06,21,11.60
2017,07,14,06,22,11.60
2017,07,14,06,23,11.60
2017,07,14,06,24,11.60
2017,07,14,06,25,11.70
2017,07,14,06,26,11.70
2017,07,14,06,27,11.70
2017,07,14,06,28,11.70
2017,07,14,06,29,11.70
2017,07,14,06,30,11.70
2017,07,14,06,31,11.70
2017,07,14,06,32,11.70
2017,07,14,06,33,11.80
2017,07,14,06,34,11.80
2017,07,14,06,35,11.80
2017,07,14,06,36,11.80
2017,07,14,06,37,11.80
2017,07,14,06,38,11.80
2017,07,14,06,39,11.90
2017,07,14,06,40,11.90
2017,07,14,06,41,12.00
2017,07,14,06,42,12.00
2017,07,14,06,43,12.10
2017,07,14,06,44,12.10
2017,07,14,06,45,12.20
2017,07,14,06,46,12.20
2017,07,14,06,47,12.30
2017,07,14,06,48,12.30
2017,07,14,06,49,12.40
2017,07,14,06,50,12.50
2017,07,14,06,51,12.50
2017,07,14,06,52,12.50
2017,07,14,06,53,12.60
2017,07,14,06,54,12.70
2017,07,14,06,55,12.70
2017,07,14,06,56,12.70
2017,07,14,06,57,12.80
2017,07,14,06,58,12.80
2017,07,14,06,59,12.90
2017,07,14,07,00,12.90
2017,07,14,07,01,13.00
2017,07,14,07,02,13.00
2017,07,14,07,03,13.10
2017,07,14,07,04,13.10
2017,07,14,07,05,13.20
2017,07,14,07,06,13.20
2017,07,14,07,07,13.30
2017,07,14,07,08,13.30
2017,07,14,07,09,13.30
2017,07,14,07,10,13.40
2017,07,14,07,11,13.40
2017,07,14,07,12,13.50
2017,07,14,07,13,13.50
2017,07,14,07,14,13.60
2017,07,14,07,15,13.60
2017,07,14,07,16,13.70
2017,07,14,07,17,13.70
2017,07,14,07,18,13.70
2017,07,14,07,19,13.80
2017,07,14,07,20,13.80
2017,07,14,07,21,13.80
2017,07,14,07,22,13.90
2017,07,14,07,23,13.90
2017,07,14,07,24,13.90
2017,07,14,07,25,14.00
2017,07,14,07,26,14.00
2017,07,14,07,27,14.10
2017,07,14,07,28,14.10
2017,07,14,07,29,14.10
2017,07,14,07,30,14.20
2017,07,14,07,31,14.20
2017,07,14,07,32,14.20
2017,07,14,07,33,14.30
2017,07,14,07,34,14.30
2017,07,14,07,35,14.40
2017,07,14,07,36,14.40
2017,07,14,07,37,14.50
2017,07,14,07,38,14.60
2017,07,14,07,39,14.60
2017,07,14,07,40,14.60
2017,07,14,07,41,14.70
2017,07,14,07,42,14.70
2017,07,14,07,43,14.80
2017,07,14,07,44,14.80
2017,07,14,07,45,14.90
2017,07,14,07,46,14.90
2017,07,14,07,47,15.00
2017,07,14,07,48,15.00
2017,07,14,07,49,15.10
2017,07,14,07,50,15.10
2017,07,14,07,51,15.20
2017,07,14,07,52,15.20
2017,07,14,07,53,15.30
2017,07,14,07,54,15.30
2017,07,14,07,55,15.40
2017,07,14,07,56,15.40
2017,07,14,07,57,15.50
2017,07,14,07,58,15.50
2017,07,14,07,59,15.60
2017,07,14,08,00,15.60
2017,07,14,08,01,15.60
2017,07,14,08,02,15.70
2017,07,14,08,03,15.70
2017,07,14,08,04,15.70
2017,07,14,08,05,15.80
2017,07,14,08,06,15.80
2017,07,14,08,07,15.80
2017,07,14,08,08,15.90
2017,07,14,08,09,15.90
2017,07,14,08,10,15.90
2017,07,14,08,11,15.90
2017,07,14,08,12,15.90
2017,07,14,08,13,15.90
2017,07,14,08,14,16.00
2017,07,14,08,15,16.00
2017,07,14,08,16,16.00
2017,07,14,08,17,16.00
2017,07,14,08,18,16.00
2017,07,14,08,19,16.00
2017,07,14,08,20,16.00
2017,07,14,08,21,16.00
2017,07,14,08,22,16.00
2017,07,14,08,23,16.10
2017,07,14,08,24,16.10
2017,07,14,08,25,16.10
2017,07,14,08,26,16.10
2017,07,14,08,27,16.10
2017,07,14,08,28,16.10
2017,07,14,08,29,16.10
2017,07,14,08,30,16.10
2017,07,14,08,31,16.10
2017,07,14,08,32,16.20
2017,07,14,08,33,16.20
2017,07,14,08,34,16.20
2017,07,14,08,35,16.20
2017,07,14,08,36,16.20
2017,07,14,08,37,16.30
2017,07,14,08,38,16.30
2017,07,14,08,39,16.30
2017,07,14,08,40,16.30
2017,07,14,08,41,16.30
2017,07,14,08,42,16.30
2017,07,14,08,43,16.30
2017,07,14,08,44,16.40
2017,07,14,08,45,16.40
2017,07,14,08,46,16.40
2017,07,14,08,47,16.40
2017,07,14,08,48,16.50
2017,07,14,08,49,16.50
2017,07,14,08,50,16.60
2017,07,14,08,51,16.60
2017,07,14,08,52,16.70
2017,07,14,08,53,16.70
2017,07,14,08,54,16.70
2017,07,14,08,55,16.80
2017,07,14,08,56,16.80
2017,07,14,08,57,16.80
2017,07,14,08,58,16.80
2017,07,14,08,59,16.90
2017,07,14,09,00,16.90
2017,07,14,09,01,16.90
2017,07,14,09,02,17.00
2017,07,14,09,03,17.00
2017,07,14,09,04,17.10
2017,07,14,09,05,17.10
2017,07,14,09,06,17.10
2017,07,14,09,07,17.10
2017,07,14,09,08,17.10
2017,07,14,09,09,17.20
2017,07,14,09,10,17.20
2017,07,14,09,11,17.30
2017,07,14,09,12,17.30
2017,07,14,09,13,17.30
2017,07,14,09,14,17.40
2017,07,14,09,15,17.40
2017,07,14,09,16,17.40
2017,07,14,09,17,17.50
2017,07,14,09,18,17.50
2017,07,14,09,19,17.50
2017,07,14,09,20,17.50
2017,07,14,09,21,17.50
2017,07,14,09,22,17.60
2017,07,14,09,23,17.60
2017,07,14,09,24,17.50
2017,07,14,09,25,17.50
2017,07,14,09,26,17.50
2017,07,14,09,27,17.50
2017,07,14,09,28,17.50
2017,07,14,09,29,17.60
2017,07,14,09,30,17.60
2017,07,14,09,31,17.60
2017,07,14,09,32,17.70
2017,07,14,09,33,17.70
2017,07,14,09,34,17.80
2017,07,14,09,35,17.80
2017,07,14,09,36,17.90
2017,07,14,09,37,17.90
2017,07,14,09,38,18.00
2017,07,14,09,39,18.10
2017,07,14,09,40,18.10
2017,07,14,09,41,18.10
2017,07,14,09,42,18.10
2017,07,14,09,43,18.20
2017,07,14,09,44,18.20
2017,07,14,09,45,18.20
2017,07,14,09,46,18.20
2017,07,14,09,47,18.20
2017,07,14,09,48,18.20
2017,07,14,09,49,18.20
2017,07,14,09,50,18.10
2017,07,14,09,51,18.00
2017,07,14,09,52,18.00
2017,07,14,09,53,17.90
2017,07,14,09,54,18.00
2017,07,14,09,55,18.00
2017,07,14,09,56,18.10
2017,07,14,09,57,18.10
2017,07,14,09,58,18.10
2017,07,14,09,59,18.10
2017,07,14,10,00,18.00
2017,07,14,10,01,18.00
2017,07,14,10,02,18.10
2017,07,14,10,03,18.20
2017,07,14,10,04,18.30
2017,07,14,10,05,18.40
2017,07,14,10,06,18.50
2017,07,14,10,07,18.50
2017,07,14,10,08,18.40
2017,07,14,10,09,18.40
2017,07,14,10,10,18.30
2017,07,14,10,11,18.30
2017,07,14,10,12,18.30
2017,07,14,10,13,18.20
2017,07,14,10,14,18.20
2017,07,14,10,15,18.20
2017,07,14,10,16,18.30
2017,07,14,10,17,18.30
2017,07,14,10,18,18.30
2017,07,14,10,19,18.30
2017,07,14,10,20,18.30
2017,07,14,10,21,18.30
2017,07,14,10,22,18.30
2017,07,14,10,23,18.20
2017,07,14,10,24,18.20
2017,07,14,10,25,18.20
2017,07,14,10,26,18.30
2017,07,14,10,27,18.30
2017,07,14,10,28,18.30
2017,07,14,10,29,18.30
2017,07,14,10,30,18.30
2017,07,14,10,31,18.30
2017,07,14,10,32,18.40
2017,07,14,10,33,18.50
2017,07,14,10,34,18.70
2017,07,14,10,35,18.80
2017,07,14,10,36,18.80
2017,07,14,10,37,18.70
2017,07,14,10,38,18.70
2017,07,14,10,39,18.70
2017,07,14,10,40,18.70
2017,07,14,10,41,18.70
2017,07,14,10,42,18.80
2017,07,14,10,43,18.90
2017,07,14,10,44,18.90
2017,07,14,10,45,18.90
2017,07,14,10,46,19.00
2017,07,14,10,47,19.00
2017,07,14,10,48,18.90
2017,07,14,10,49,18.80
2017,07,14,10,50,18.80
2017,07,14,10,51,18.80
2017,07,14,10,52,18.90
2017,07,14,10,53,18.90
2017,07,14,10,54,18.90
2017,07,14,10,55,18.90
2017,07,14,10,56,18.90
2017,07,14,10,57,18.90
2017,07,14,10,58,18.90
2017,07,14,10,59,18.90
2017,07,14,11,00,18.80
2017,07,14,11,01,18.70
2017,07,14,11,02,18.70
2017,07,14,11,03,18.70
2017,07,14,11,04,18.70
2017,07,14,11,05,18.80
2017,07,14,11,06,18.70
2017,07,14,11,07,18.70
2017,07,14,11,08,18.70
2017,07,14,11,09,18.70
2017,07,14,11,10,18.80
2017,07,14,11,11,18.80
2017,07,14,11,12,18.80
2017,07,14,11,13,18.90
2017,07,14,11,14,18.80
2017,07,14,11,15,18.90
2017,07,14,11,16,18.90
2017,07,14,11,17,18.90
2017,07,14,11,18,18.90
2017,07,14,11,19,18.90
2017,07,14,11,20,18.90
2017,07,14,11,21,18.90
2017,07,14,11,22,18.80
2017,07,14,11,23,18.90
2017,07,14,11,24,19.00
2017,07,14,11,25,19.00
2017,07,14,11,26,19.00
2017,07,14,11,27,19.10
2017,07,14,11,28,19.00
2017,07,14,11,29,19.00
2017,07,14,11,30,19.00
2017,07,14,11,31,19.00
2017,07,14,11,32,19.00
2017,07,14,11,33,19.10
2017,07,14,11,34,19.10
2017,07,14,11,35,19.20
2017,07,14,11,36,19.40
2017,07,14,11,37,19.50
2017,07,14,11,38,19.60
2017,07,14,11,39,19.60
2017,07,14,11,40,19.60
2017,07,14,11,41,19.50
2017,07,14,11,42,19.50
2017,07,14,11,43,19.50
2017,07,14,11,44,19.70
2017,07,14,11,45,19.80
2017,07,14,11,46,19.90
2017,07,14,11,47,19.90
2017,07,14,11,48,19.90
2017,07,14,11,49,20.00
2017,07,14,11,50,20.00
2017,07,14,11,51,19.90
2017,07,14,11,52,19.90
2017,07,14,11,53,19.90
2017,07,14,11,54,19.80
2017,07,14,11,55,19.80
2017,07,14,11,56,19.80
2017,07,14,11,57,19.80
2017,07,14,11,58,19.90
2017,07,14,11,59,19.80
2017,07,14,12,00,19.80
2017,07,14,12,01,19.80
2017,07,14,12,02,19.80
2017,07,14,12,03,19.70
2017,07,14,12,04,19.70
2017,07,14,12,05,19.60
2017,07,14,12,06,19.60
2017,07,14,12,07,19.70
2017,07,14,12,08,19.80
2017,07,14,12,09,19.80
2017,07,14,12,10,19.80
2017,07,14,12,11,19.70
2017,07,14,12,12,19.60
2017,07,14,12,13,19.70
2017,07,14,12,14,19.70
2017,07,14,12,15,19.70
2017,07,14,12,16,19.70
2017,07,14,12,17,19.70
2017,07,14,12,18,19.80
2017,07,14,12,19,19.70
2017,07,14,12,20,19.70
2017,07,14,12,21,19.60
2017,07,14,12,22,19.50
2017,07,14,12,23,19.40
2017,07,14,12,24,19.50
2017,07,14,12,25,19.50
2017,07,14,12,26,19.70
2017,07,14,12,27,20.00
2017,07,14,12,28,20.30
2017,07,14,12,29,20.40
2017,07,14,12,30,20.50
2017,07,14,12,31,20.40
2017,07,14,12,32,20.30
2017,07,14,12,33,20.20
2017,07,14,12,34,20.10
2017,07,14,12,35,20.10
2017,07,14,12,36,20.00
2017,07,14,12,37,19.90
2017,07,14,12,38,19.90
2017,07,14,12,39,19.80
2017,07,14,12,40,19.60
2017,07,14,12,41,19.60
2017,07,14,12,42,19.70
2017,07,14,12,43,19.70
2017,07,14,12,44,19.70
2017,07,14,12,45,19.80
2017,07,14,12,46,19.90
2017,07,14,12,47,20.00
2017,07,14,12,48,20.20
2017,07,14,12,49,20.30
2017,07,14,12,50,20.40
2017,07,14,12,51,20.40
2017,07,14,12,52,20.40
2017,07,14,12,53,20.30
2017,07,14,12,54,20.30
2017,07,14,12,55,20.30
2017,07,14,12,56,20.30
2017,07,14,12,57,20.30
2017,07,14,12,58,20.30
2017,07,14,12,59,20.40
2017,07,14,13,00,20.30
2017,07,14,13,01,20.20
2017,07,14,13,02,20.10
2017,07,14,13,03,20.00
2017,07,14,13,04,19.90
2017,07,14,13,05,19.80
2017,07,14,13,06,19.70
2017,07,14,13,07,19.70
2017,07,14,13,08,19.60
2017,07,14,13,09,19.60
2017,07,14,13,10,19.60
2017,07,14,13,11,19.60
2017,07,14,13,12,19.80
2017,07,14,13,13,20.00
2017,07,14,13,14,20.20
2017,07,14,13,15,20.20
2017,07,14,13,16,20.30
2017,07,14,13,17,20.30
2017,07,14,13,18,20.40
2017,07,14,13,19,20.40
2017,07,14,13,20,20.50
2017,07,14,13,21,20.50
2017,07,14,13,22,20.40
2017,07,14,13,23,20.30
2017,07,14,13,24,20.30
2017,07,14,13,25,20.30
2017,07,14,13,26,20.30
2017,07,14,13,27,20.30
2017,07,14,13,28,20.30
2017,07,14,13,29,20.30
2017,07,14,13,30,20.30
2017,07,14,13,31,20.30
2017,07,14,13,32,20.30
2017,07,14,13,33,20.30
2017,07,14,13,34,20.20
2017,07,14,13,35,20.20
2017,07,14,13,36,20.10
2017,07,14,13,37,20.10
2017,07,14,13,38,20.00
2017,07,14,13,39,20.00
2017,07,14,13,40,20.10
2017,07,14,13,41,20.30
2017,07,14,13,42,20.50
2017,07,14,13,43,20.80
2017,07,14,13,44,20.90
2017,07,14,13,45,20.90
2017,07,14,13,46,20.90
2017,07,14,13,47,20.80
2017,07,14,13,48,20.80
2017,07,14,13,49,20.70
2017,07,14,13,50,20.60
2017,07,14,13,51,20.60
2017,07,14,13,52,20.70
2017,07,14,13,53,20.80
2017,07,14,13,54,20.90
2017,07,14,13,55,20.80
2017,07,14,13,56,20.70
2017,07,14,13,57,20.70
2017,07,14,13,58,20.70
2017,07,14,13,59,20.70
2017,07,14,14,00,20.70
2017,07,14,14,01,20.70
2017,07,14,14,02,20.70
2017,07,14,14,03,20.70
2017,07,14,14,04,20.70
2017,07,14,14,05,20.70
2017,07,14,14,06,20.70
2017,07,14,14,07,20.70
2017,07,14,14,08,20.70
2017,07,14,14,09,20.70
2017,07,14,14,10,20.70
2017,07,14,14,11,20.60
2017,07,14,14,12,20.60
2017,07,14,14,13,20.60
2017,07,14,14,14,20.60
2017,07,14,14,15,20.60
2017,07,14,14,16,20.60
2017,07,14,14,17,20.60
2017,07,14,14,18,20.60
2017,07,14,14,19,20.60
2017,07,14,14,20,20.60
2017,07,14,14,21,20.60
2017,07,14,14,22,20.60
2017,07,14,14,23,20.60
2017,07,14,14,24,20.50
2017,07,14,14,25,20.60
2017,07,14,14,26,20.60
2017,07,14,14,27,20.60
2017,07,14,14,28,20.60
2017,07,14,14,29,20.70
2017,07,14,14,30,20.80
2017,07,14,14,31,21.10
2017,07,14,14,32,21.20
2017,07,14,14,33,21.30
2017,07,14,14,34,21.30
2017,07,14,14,35,21.40
2017,07,14,14,36,21.50
2017,07,14,14,37,21.50
2017,07,14,14,38,21.40
2017,07,14,14,39,21.40
2017,07,14,14,40,21.30
2017,07,14,14,41,21.20
2017,07,14,14,42,21.20
2017,07,14,14,43,21.30
2017,07,14,14,44,21.30
2017,07,14,14,45,21.40
2017,07,14,14,46,21.40
2017,07,14,14,47,21.30
2017,07,14,14,48,21.20
2017,07,14,14,49,21.20
2017,07,14,14,50,21.20
2017,07,14,14,51,21.20
2017,07,14,14,52,21.20
2017,07,14,14,53,21.20
2017,07,14,14,54,21.20
2017,07,14,14,55,21.20
2017,07,14,14,56,21.30
2017,07,14,14,57,21.30
2017,07,14,14,58,21.50
2017,07,14,14,59,21.60
2017,07,14,15,00,21.70
2017,07,14,15,01,21.70
2017,07,14,15,02,21.70
2017,07,14,15,03,21.70
2017,07,14,15,04,21.60
2017,07,14,15,05,21.50
2017,07,14,15,06,21.50
2017,07,14,15,07,21.60
2017,07,14,15,08,21.70
2017,07,14,15,09,21.70
2017,07,14,15,10,21.70
2017,07,14,15,11,21.70
2017,07,14,15,12,21.70
2017,07,14,15,13,21.60
2017,07,14,15,14,21.60
2017,07,14,15,15,21.70
2017,07,14,15,16,21.60
2017,07,14,15,17,21.70
2017,07,14,15,18,21.70
2017,07,14,15,19,21.70
2017,07,14,15,20,21.70
2017,07,14,15,21,21.60
2017,07,14,15,22,21.50
2017,07,14,15,23,21.50
2017,07,14,15,24,21.40
2017,07,14,15,25,21.40
2017,07,14,15,26,21.50
2017,07,14,15,27,21.60
2017,07,14,15,28,21.60
2017,07,14,15,29,21.60
2017,07,14,15,30,21.70
2017,07,14,15,31,21.70
2017,07,14,15,32,21.70
2017,07,14,15,33,21.80
2017,07,14,15,34,21.70
2017,07,14,15,35,21.80
2017,07,14,15,36,21.90
2017,07,14,15,37,21.80
2017,07,14,15,38,21.80
2017,07,14,15,39,21.70
2017,07,14,15,40,21.70
2017,07,14,15,41,21.80
2017,07,14,15,42,21.80
2017,07,14,15,43,21.80
2017,07,14,15,44,21.80
2017,07,14,15,45,21.80
2017,07,14,15,46,21.70
2017,07,14,15,47,21.70
2017,07,14,15,48,21.70
2017,07,14,15,49,21.90
2017,07,14,15,50,22.00
2017,07,14,15,51,22.00
2017,07,14,15,52,21.90
2017,07,14,15,53,21.80
2017,07,14,15,54,21.80
2017,07,14,15,55,21.60
2017,07,14,15,56,21.50
2017,07,14,15,57,21.30
2017,07,14,15,58,21.20
2017,07,14,15,59,21.20
2017,07,14,16,00,21.40
2017,07,14,16,01,21.40
2017,07,14,16,02,21.30
2017,07,14,16,03,21.30
2017,07,14,16,04,21.20
2017,07,14,16,05,21.10
2017,07,14,16,06,21.10
2017,07,14,16,07,21.20
2017,07,14,16,08,21.30
2017,07,14,16,09,21.30
2017,07,14,16,10,21.30
2017,07,14,16,11,21.30
2017,07,14,16,12,21.30
2017,07,14,16,13,21.40
2017,07,14,16,14,21.30
2017,07,14,16,15,21.20
2017,07,14,16,16,21.20
2017,07,14,16,17,21.20
2017,07,14,16,18,21.20
2017,07,14,16,19,21.30
2017,07,14,16,20,21.40
2017,07,14,16,21,21.50
2017,07,14,16,22,21.50
2017,07,14,16,23,21.50
2017,07,14,16,24,21.60
2017,07,14,16,25,21.70
2017,07,14,16,26,21.70
2017,07,14,16,27,21.80
2017,07,14,16,28,21.80
2017,07,14,16,29,21.80
2017,07,14,16,30,21.80
2017,07,14,16,31,21.70
2017,07,14,16,32,21.70
2017,07,14,16,33,21.70
2017,07,14,16,34,21.70
2017,07,14,16,35,21.80
2017,07,14,16,36,21.80
2017,07,14,16,37,21.90
2017,07,14,16,38,21.90
2017,07,14,16,39,22.00
2017,07,14,16,40,22.00
2017,07,14,16,41,22.00
2017,07,14,16,42,22.00
2017,07,14,16,43,21.90
2017,07,14,16,44,21.90
2017,07,14,16,45,21.80
2017,07,14,16,46,21.80
2017,07,14,16,47,21.70
2017,07,14,16,48,21.60
2017,07,14,16,49,21.60
2017,07,14,16,50,21.50
2017,07,14,16,51,21.40
2017,07,14,16,52,21.40
2017,07,14,16,53,21.40
2017,07,14,16,54,21.40
2017,07,14,16,55,21.40
2017,07,14,16,56,21.40
2017,07,14,16,57,21.50
2017,07,14,16,58,21.50
2017,07,14,16,59,21.50
2017,07,14,17,00,21.60
2017,07,14,17,01,21.60
2017,07,14,17,02,21.60
2017,07,14,17,03,21.60
2017,07,14,17,04,21.60
2017,07,14,17,05,21.60
2017,07,14,17,06,21.60
2017,07,14,17,07,21.70
2017,07,14,17,08,21.70
2017,07,14,17,09,21.70
2017,07,14,17,10,21.70
2017,07,14,17,11,21.70
2017,07,14,17,12,21.70
2017,07,14,17,13,21.60
2017,07,14,17,14,21.60
2017,07,14,17,15,21.60
2017,07,14,17,16,21.60
2017,07,14,17,17,21.60
2017,07,14,17,18,21.70
2017,07,14,17,19,21.80